Wind_Speed
20 19 19 22 25 25 28 29 30 30 30 32 36 38 36 37 40 41 39 32 23 23 21 21 23 22 21 20 20 18 13 11 11 15 28 24 29 22 30 39 25 19 15 17 8
22 24 26 27 29 29 30 31 33 33 34 36 38 37 38 40 41 38 32 20 20 19 19 21 20 21 21 20 17 15 10 10 10 17 14 24 22 39 51 37 26 23 13 14 16
25 27 29 29 31 32 33 35 35 35 35 37 39 40 40 40 38 29 19 17 17 19 19 20 20 19 18 18 19 17 16 9 10 22 29 34 40 36 41 36 24 25 13 11 18
30 30 28 31 33 35 37 37 38 37 38 38 39 42 43 39 29 19 15 16 19 21 21 21 20 16 17 19 20 20 21 19 10 16 22 26 31 29 32 34 25 20 19 15 24
32 32 33 34 36 38 39 38 39 39 39 39 40 42 39 31 24 15 16 18 20 20 21 21 19 18 18 20 21 20 21 22 25 21 17 20 24 26 26 25 22 19 22 29 19
35 37 38 39 39 39 39 40 40 38 39 40 41 40 29 26 18 16 17 19 20 21 21 22 22 21 22 22 22 23 24 24 25 27 27 26 26 27 26 26 22 13 23 26 22
38 39 41 42 43 41 38 39 37 37 41 43 41 30 23 17 14 15 18 21 23 24 24 23 23 23 24 24 24 24 27 27 26 27 27 25 28 28 29 28 27 13 18 22 29
41 43 45 45 42 41 39 37 35 38 42 40 29 21 15 12 13 16 20 24 27 28 26 27 27 27 25 26 25 26 26 31 30 29 30 26 28 30 31 32 31 20 18 20 27
44 45 46 45 42 39 36 35 37 40 37 28 19 16 13 13 15 18 21 27 28 27 29 29 30 29 29 29 31 31 31 29 34 31 32 31 26 28 30 34 35 29 21 23 22
46 44 43 39 35 33 34 37 39 39 29 24 16 15 14 17 19 22 25 28 29 30 31 31 30 31 32 32 33 35 34 33 32 34 34 36 32 30 30 30 35 32 32 26 28
43 42 37 35 34 35 36 38 39 33 27 21 18 17 18 21 23 25 29 31 31 33 34 34 33 34 35 35 35 36 37 35 38 39 38 40 36 35 34 34 34 38 35 34 32
44 41 39 36 36 37 39 39 39 32 25 22 20 20 21 23 26 29 31 32 34 35 35 35 34 36 37 38 38 41 41 41 39 41 43 44 43 43 38 37 40 40 43 42 38
46 44 42 42 43 43 44 41 39 31 25 25 25 25 26 26 29 32 33 34 34 37 38 38 38 37 38 41 41 44 45 41 38 45 48 46 41 43 46 46 44 46 48 50 49
49 49 49 49 47 46 45 43 38 31 25 30 32 28 29 31 34 34 36 36 37 39 41 41 41 39 41 45 48 48 51 46 42 48 51 54 43 50 48 51 55 60 56 52 51
54 54 53 52 50 48 46 44 35 32 26 32 37 32 34 35 36 42 40 38 41 43 45 46 46 45 43 45 48 50 51 49 48 52 55 61 54 50 55 59 56 44 39 40 42
58 57 57 54 50 48 46 39 34 33 31 34 37 38 39 40 41 41 42 45 42 47 50 50 50 49 49 51 52 53 53 51 51 56 56 57 57 56 51 58 46 34 33 36 44
58 58 55 52 50 47 42 37 36 34 35 38 40 41 42 43 43 44 46 46 45 45 55 56 53 50 50 51 53 53 52 48 47 55 59 61 62 61 63 49 31 28 24 26 34
59 57 55 54 52 47 41 39 39 38 40 44 44 43 46 47 48 48 48 49 49 48 54 59 57 55 55 56 57 54 53 54 52 56 59 61 61 62 66 43 24 18 9 11 21
61 60 57 54 50 45 43 44 42 44 44 47 48 48 51 50 49 52 54 54 54 53 56 62 60 60 59 62 62 58 56 59 59 59 60 61 61 58 59 33 5 19 15 3 13
58 54 51 50 47 46 47 49 47 47 49 52 52 54 54 55 52 53 60 60 60 60 61 65 60 63 64 67 65 62 57 57 64 62 60 61 57 58 47 18 25 22 18 13 9
51 48 48 50 49 50 52 53 51 52 51 58 57 58 58 60 59 62 65 66 63 64 64 64 64 63 65 68 65 61 59 60 64 64 64 58 63 54 33 9 24 21 24 24 19
56 55 53 55 56 55 57 58 57 58 58 61 62 62 63 64 66 68 71 73 70 70 69 68 66 65 66 69 69 62 61 62 65 66 67 59 60 48 26 18 22 32 32 26 22
65 65 59 62 63 63 63 64 65 64 67 66 65 69 70 71 71 72 74 79 77 74 73 69 73 69 66 69 69 64 66 67 64 67 66 61 59 46 30 19 37 41 44 37 31
73 73 68 66 72 70 71 72 72 71 71 74 73 74 75 76 78 78 79 81 84 82 75 73 75 72 67 65 69 66 66 70 69 66 63 62 59 45 21 22 49 37 46 44 27
82 80 78 78 78 78 79 79 79 79 80 77 80 83 83 83 82 82 82 85 88 85 81 78 76 72 69 70 68 71 73 72 70 70 64 62 61 43 24 27 50 39 32 23 23
91 89 88 89 86 84 86 87 88 88 87 87 86 87 89 91 88 85 86 91 87 89 85 82 74 72 70 73 72 74 75 73 73 69 70 63 56 38 20 30 59 52 42 33 23
93 94 94 95 95 94 93 93 93 93 93 95 96 94 93 92 90 89 91 91 89 87 86 84 80 76 72 77 76 80 72 73 73 71 68 58 48 34 25 30 62 60 53 47 40
Wind_Direction
266 276 280 285 287 287 289 293 299 306 312 321 322 322 324 325 325 323 323 326 328 333 344 349 351 355 0 5 0 358 359 286 285 299 323 313 333 305 305 327 325 301 321 310 344
268 274 279 283 285 292 291 293 298 306 313 319 320 323 323 324 322 318 322 328 328 337 344 351 354 2 359 358 1 358 352 291 264 243 276 264 320 299 290 308 309 292 331 314 302
271 274 276 280 282 288 294 298 305 310 313 315 319 320 322 325 320 323 322 326 336 343 349 355 358 359 356 356 355 354 342 324 278 261 254 261 279 291 291 291 297 283 253 291 298
273 277 283 285 286 288 292 298 304 310 313 314 315 316 322 325 327 324 326 345 352 346 345 350 353 353 348 347 356 353 342 331 312 283 283 277 279 289 294 298 280 275 265 245 284
273 282 284 284 286 289 292 297 303 305 309 311 314 314 320 323 323 329 345 351 345 342 339 340 347 349 347 348 347 344 345 339 334 328 312 292 288 290 293 292 286 271 261 249 264
276 278 281 284 287 289 294 297 301 305 306 309 310 309 310 312 322 334 341 342 339 335 332 334 336 338 339 344 347 343 344 346 348 338 333 324 314 304 298 295 289 286 271 261 260
273 276 278 282 286 290 291 297 301 302 307 309 307 299 297 301 317 328 330 333 333 332 332 330 331 334 334 337 341 343 344 342 347 346 338 327 314 307 302 298 292 286 270 256 257
272 275 278 282 286 290 294 298 297 306 311 310 302 283 276 290 303 315 324 328 327 329 328 334 334 334 333 333 337 338 340 338 339 342 342 336 313 310 304 298 294 282 265 265 251
272 275 280 284 287 291 294 295 301 311 310 313 295 272 272 290 298 308 318 324 326 329 331 332 332 333 330 329 330 332 333 335 331 336 340 334 320 306 301 297 295 293 270 257 253
271 276 282 286 288 288 290 295 304 307 300 299 285 277 277 286 298 307 316 319 324 326 327 326 328 330 329 326 328 329 332 329 326 328 336 331 328 312 299 288 289 289 283 271 255
271 274 279 283 283 284 290 299 303 300 295 288 280 277 284 292 300 306 314 319 322 324 324 325 327 330 329 327 326 327 331 330 326 329 337 330 327 313 301 294 284 285 283 266 253
269 272 276 281 285 286 291 297 301 292 284 281 282 280 285 292 301 307 312 317 320 323 324 325 325 328 326 324 324 323 326 329 325 329 334 331 325 313 307 302 292 280 279 277 264
269 274 278 282 284 286 290 293 294 282 276 274 274 276 284 293 301 306 310 313 318 322 324 325 324 327 324 318 322 321 325 329 326 329 331 329 326 317 309 307 296 286 279 272 266
272 275 279 281 283 286 289 289 285 271 267 267 273 277 285 295 300 303 306 310 317 320 323 325 324 327 325 322 324 326 327 330 329 328 332 325 329 318 312 305 302 296 285 268 257
273 277 279 282 284 284 286 286 272 261 260 266 273 279 285 291 298 303 305 309 316 320 322 324 322 325 322 320 322 323 328 329 330 331 332 325 331 325 315 312 304 289 272 258 256
274 277 280 282 281 281 282 274 259 259 260 263 267 276 282 288 294 296 300 306 313 318 318 321 322 324 322 322 325 324 327 327 329 330 331 325 326 326 325 319 306 282 258 240 229
273 275 277 277 279 278 272 260 258 261 264 265 270 275 278 284 289 295 300 304 309 316 315 317 319 316 315 316 320 322 324 322 325 327 329 330 333 333 334 325 318 294 267 261 246
272 273 273 275 276 271 259 258 260 265 267 269 270 272 278 285 289 293 294 298 305 311 312 314 317 315 315 318 318 321 324 321 327 330 331 330 333 339 335 335 332 319 267 244 236
272 272 272 270 268 259 258 259 262 266 269 268 271 274 280 283 288 292 294 299 303 308 310 311 314 313 315 317 318 322 325 323 325 329 332 331 333 341 338 335 20 103 90 312 140
268 266 264 261 255 257 261 263 263 265 268 271 274 278 281 284 287 290 293 298 303 307 309 311 313 313 316 316 317 320 322 322 322 327 331 330 333 340 339 330 132 126 125 128 190
261 259 259 259 258 260 262 264 265 267 269 273 275 279 282 286 288 290 293 295 299 303 305 308 307 311 312 312 313 318 320 321 321 325 329 331 328 340 335 274 153 132 136 150 162
259 258 257 259 262 261 263 265 267 269 269 272 277 278 281 283 286 290 293 296 300 302 304 305 305 308 310 310 312 315 318 318 320 325 325 328 327 341 324 236 175 139 143 158 124
260 260 256 261 262 263 263 266 267 268 272 272 273 277 280 282 286 289 292 295 297 299 301 303 304 306 308 308 309 314 316 315 320 322 320 326 327 331 323 207 189 151 147 144 142
260 260 260 258 260 262 263 264 266 268 269 274 275 276 279 282 285 288 292 294 296 296 299 301 301 304 307 306 309 312 313 312 319 319 322 323 324 320 311 207 186 163 140 139 155
260 261 262 261 261 264 265 265 267 269 270 271 275 278 279 281 283 286 290 291 292 295 297 298 301 303 305 306 309 311 310 313 318 316 320 322 322 310 292 200 196 184 175 155 159
260 261 260 262 262 262 264 266 269 271 272 273 273 274 279 281 283 286 288 288 290 293 294 296 298 301 304 304 307 307 307 315 312 316 318 322 322 310 277 197 192 191 193 193 193
259 259 260 262 263 264 264 265 267 268 272 274 274 274 276 278 281 284 284 287 290 291 293 296 299 301 303 303 305 302 311 310 310 313 314 318 321 313 260 198 193 195 197 191 191
Height
11029 11029 11029 11028 11027 11026 11024 11022 11021 11020 11018 11017 11014 11011 11007 11004 11001 10997 10994 10992 10989 10985 10983 10980 10976 10973 10971 10969 10966 10962 10965 10965 10966 10962 10957 10950 10946 10941 10945 10950 10947 10946 10947 10946 10945
11026 11026 11026 11025 11024 11022 11020 11018 11017 11016 11014 11012 11009 11006 11003 11000 10996 10993 10991 10989 10987 10984 10982 10980 10976 10973 10970 10969 10967 10964 10962 10961 10961 10957 10956 10953 10946 10938 10935 10949 10945 10943 10944 10944 10943
11022 11022 11021 11021 11019 11018 11016 11014 11013 11012 11010 11007 11004 11001 10998 10996 10991 10989 10988 10987 10986 10983 10980 10979 10976 10973 10970 10967 10964 10962 10960 10961 10959 10955 10953 10951 10945 10941 10932 10942 10939 10937 10941 10941 10944
11018 11017 11016 11016 11015 11013 11011 11010 11008 11007 11005 11002 10999 10996 10994 10991 10987 10985 10985 10985 10983 10981 10978 10978 10976 10973 10969 10966 10963 10959 10954 10952 10956 10953 10947 10946 10941 10936 10929 10929 10936 10933 10935 10937 10939
11013 11012 11011 11011 11009 11008 11006 11006 11004 11003 11000 10997 10995 10991 10990 10988 10986 10984 10983 10982 10980 10979 10977 10976 10975 10972 10969 10964 10961 10958 10954 10949 10944 10944 10945 10941 10935 10928 10927 10928 10930 10929 10928 10929 10933
11007 11006 11005 11005 11004 11003 11002 11000 10999 10996 10994 10993 10990 10986 10985 10983 10982 10981 10980 10979 10978 10977 10975 10974 10972 10970 10967 10964 10959 10954 10951 10948 10944 10938 10934 10930 10926 10924 10923 10922 10922 10927 10923 10924 10927
11001 11000 10999 10998 10998 10999 10998 10996 10994 10992 10989 10987 10983 10980 10981 10979 10978 10977 10977 10976 10975 10973 10971 10970 10969 10966 10963 10960 10957 10952 10947 10944 10942 10937 10933 10930 10924 10921 10917 10915 10911 10921 10922 10920 10920
10994 10993 10992 10992 10992 10992 10992 10990 10988 10987 10983 10980 10977 10976 10977 10976 10976 10975 10973 10972 10970 10967 10966 10964 10962 10960 10958 10955 10954 10950 10947 10938 10935 10933 10930 10928 10920 10915 10911 10907 10905 10912 10917 10917 10915
10988 10987 10986 10986 10986 10986 10984 10984 10982 10980 10978 10975 10973 10973 10973 10973 10972 10971 10970 10968 10965 10964 10960 10958 10956 10954 10952 10949 10947 10945 10940 10937 10928 10928 10925 10920 10918 10913 10907 10901 10896 10896 10903 10908 10910
10980 10981 10980 10979 10979 10979 10978 10977 10976 10975 10973 10971 10970 10970 10970 10969 10968 10967 10965 10964 10961 10959 10956 10954 10952 10949 10947 10944 10941 10937 10935 10930 10926 10922 10920 10914 10911 10907 10901 10898 10892 10891 10890 10892 10899
10973 10974 10974 10973 10973 10972 10972 10971 10970 10969 10967 10967 10966 10966 10966 10965 10964 10962 10960 10958 10956 10954 10951 10948 10945 10943 10939 10936 10934 10931 10928 10924 10915 10912 10912 10905 10901 10893 10890 10890 10889 10884 10884 10887 10891
10966 10967 10967 10967 10966 10965 10965 10964 10963 10962 10962 10961 10960 10961 10961 10960 10958 10956 10954 10952 10950 10948 10945 10942 10940 10938 10933 10928 10926 10923 10921 10916 10907 10903 10900 10894 10887 10879 10879 10879 10876 10876 10873 10873 10875
10957 10959 10959 10959 10959 10958 10957 10956 10956 10955 10955 10953 10954 10955 10954 10954 10952 10950 10948 10947 10945 10942 10938 10936 10933 10932 10927 10922 10920 10914 10911 10908 10900 10891 10887 10884 10881 10870 10862 10861 10861 10858 10858 10858 10859
10948 10949 10950 10949 10950 10949 10948 10948 10947 10948 10950 10945 10945 10949 10948 10946 10944 10943 10941 10939 10937 10935 10930 10927 10925 10924 10919 10911 10907 10902 10897 10894 10890 10880 10876 10866 10872 10856 10855 10850 10843 10834 10831 10835 10841
10939 10939 10939 10938 10939 10939 10938 10938 10938 10940 10944 10940 10936 10940 10939 10939 10938 10931 10931 10931 10929 10925 10921 10919 10915 10913 10910 10906 10901 10894 10889 10882 10877 10871 10864 10847 10850 10851 10840 10829 10815 10808 10807 10811 10816
10928 10928 10928 10927 10928 10928 10928 10928 10929 10931 10934 10934 10932 10931 10929 10930 10929 10928 10924 10919 10922 10916 10912 10910 10907 10903 10899 10893 10890 10884 10881 10873 10866 10860 10857 10848 10837 10831 10823 10808 10794 10787 10786 10785 10786
10916 10916 10916 10916 10916 10918 10918 10918 10920 10922 10924 10925 10923 10922 10922 10921 10921 10918 10913 10914 10914 10913 10901 10898 10900 10898 10894 10890 10884 10878 10872 10869 10865 10854 10845 10830 10821 10813 10802 10788 10779 10774 10770 10773 10778
10904 10904 10905 10905 10906 10907 10908 10908 10910 10913 10914 10911 10913 10915 10911 10911 10909 10907 10907 10906 10906 10905 10897 10889 10888 10886 10882 10878 10872 10869 10861 10851 10851 10844 10837 10822 10815 10805 10786 10777 10768 10765 10774 10768 10775
10891 10891 10893 10893 10894 10896 10897 10898 10901 10901 10902 10900 10902 10903 10900 10900 10899 10895 10894 10894 10893 10895 10890 10882 10879 10873 10871 10865 10857 10856 10849 10837 10833 10832 10826 10813 10805 10796 10786 10774 10767 10763 10762 10776 10778
10878 10879 10879 10880 10883 10884 10886 10887 10890 10891 10890 10888 10890 10889 10889 10887 10890 10889 10880 10881 10881 10882 10878 10871 10873 10861 10854 10850 10846 10843 10840 10833 10819 10819 10818 10805 10798 10792 10781 10775 10767 10758 10756 10764 10774
10865 10869 10870 10868 10873 10874 10874 10875 10879 10879 10882 10875 10878 10877 10877 10873 10875 10873 10870 10867 10873 10871 10868 10864 10858 10857 10848 10838 10837 10833 10827 10820 10810 10806 10803 10799 10783 10788 10778 10771 10767 10757 10752 10753 10766
10853 10855 10860 10859 10859 10863 10863 10864 10866 10866 10869 10865 10864 10864 10863 10863 10862 10859 10854 10850 10856 10855 10854 10850 10847 10849 10840 10827 10821 10820 10815 10810 10802 10796 10786 10785 10779 10783 10777 10772 10772 10757 10758 10760 10765
10838 10839 10849 10846 10847 10848 10851 10850 10850 10853 10850 10852 10854 10849 10848 10848 10848 10847 10845 10835 10838 10842 10841 10839 10831 10834 10831 10815 10810 10808 10800 10794 10795 10787 10779 10778 10771 10767 10768 10769 10770 10757 10760 10765 10759
10822 10822 10831 10837 10829 10835 10835 10834 10835 10838 10839 10834 10837 10837 10836 10834 10833 10832 10830 10826 10818 10820 10826 10825 10819 10816 10816 10808 10798 10797 10791 10782 10779 10776 10772 10765 10761 10758 10757 10756 10758 10755 10754 10757 10764
10803 10806 10814 10815 10816 10818 10818 10819 10820 10821 10821 10825 10822 10817 10817 10818 10819 10820 10819 10811 10803 10804 10808 10808 10807 10802 10798 10791 10788 10780 10772 10770 10768 10760 10757 10755 10745 10742 10742 10740 10747 10750 10749 10748 10756
10782 10787 10790 10788 10796 10803 10800 10800 10800 10800 10802 10804 10806 10805 10800 10796 10802 10806 10802 10789 10793 10786 10788 10789 10793 10789 10785 10775 10771 10766 10758 10759 10751 10749 10740 10740 10731 10726 10724 10728 10735 10737 10737 10739 10741
10760 10765 10768 10769 10772 10776 10779 10781 10782 10783 10785 10782 10779 10781 10784 10785 10788 10785 10779 10775 10774 10773 10769 10768 10771 10771 10771 10759 10756 10743 10752 10743 10737 10734 10730 10727 10721 10718 10715 10723 10728 10730 10730 10729 10732